Weather History for Statesville, NC

Change the Weather History Date:

Monday, February 4, 2013

  Actual Average (KHKY) Record (KHKY)
Temperature  
Mean Temperature 37 °F -  
Max Temperature 48 °F 51 °F 75 °F (1991)
Min Temperature 26 °F 29 °F 7 °F (1970)
Degree Days  
Heating Degree Days 28    
Moisture  
Dew Point 22 °F    
Average Humidity 55    
Maximum Humidity 86    
Minimum Humidity 34    
Precipitation  
Precipitation 0.00 in - - ()
Sea Level Pressure  
Sea Level Pressure 30.03 in    
Wind  
Wind Speed 3 mph (SSW)    
Max Wind Speed 8 mph    
Max Gust Speed -    
Visibility 10 miles    
Events      
Averages and records for this station are not official NWS values.
T = Trace of Precipitation, MM = Missing Value Source: NWS Daily Summary

Daily Weather History Graph

Daily Weather History Graph

Search for Another Location

Airport:

Trip Planner

Search our weather history database for the weather conditions in past years. The results will help you decide how hot, cold, wet, or windy it might be!

Date:

Astronomy

Feb. 04, 2013 Rise Set
Actual Time 7:21 AM EST 5:54 PM EST
Civil Twilight 6:54 AM EST 6:21 PM EST
Nautical Twilight 6:24 AM EST 6:51 PM EST
Astronomical Twilight 5:54 AM EST 7:21 PM EST
Moon 1:53 AM EST (2/4) 12:19 PM EST (2/4)
Length of Visible Light 11h 26m
Length of Day
10h 33m
Last Quarter, 37% of the Moon is Illuminated
Feb 4
Last Quarter
Feb 10
New
Feb 17
First Quarter
Feb 25
Full
Mar 4
Last Quarter

Hourly Weather History & Observations

Time (EST) Temp. Windchill Dew Point Humidity Pressure Visibility Wind Dir Wind Speed Gust Speed Precip Events Conditions
12:17 AM 30.2 °F 25.4 °F 21.2 °F 69% 29.99 in 10.0 mi WNW 4.6 mph - N/A   Clear
12:37 AM 26.6 °F - 21.2 °F 80% 30.00 in 10.0 mi Calm Calm - N/A   Clear
12:57 AM 28.4 °F - 21.2 °F 74% 30.00 in 10.0 mi Calm Calm - N/A   Clear
1:17 AM 30.2 °F - 21.2 °F 69% 29.99 in 10.0 mi Calm Calm - N/A   Clear
1:38 AM 28.4 °F 23.3 °F 21.2 °F 74% 30.01 in 10.0 mi West 4.6 mph - N/A   Clear
1:57 AM 32.0 °F 24.8 °F 19.4 °F 60% 30.01 in 10.0 mi West 8.1 mph - N/A   Clear
2:17 AM 30.2 °F 24.3 °F 19.4 °F 64% 30.01 in 10.0 mi WNW 5.8 mph - N/A   Clear
2:37 AM 28.4 °F 24.6 °F 19.4 °F 69% 30.01 in 10.0 mi West 3.5 mph - N/A   Clear
2:58 AM 28.4 °F 22.2 °F 19.4 °F 69% 30.02 in 10.0 mi WSW 5.8 mph - N/A   Clear
3:19 AM 30.2 °F 25.4 °F 19.4 °F 64% 30.02 in 10.0 mi West 4.6 mph - N/A   Clear
3:37 AM 28.4 °F 24.6 °F 19.4 °F 69% 30.02 in 10.0 mi WSW 3.5 mph - N/A   Clear
3:57 AM 28.4 °F - 19.4 °F 69% 30.01 in 10.0 mi Calm Calm - N/A   Clear
4:17 AM 26.6 °F 22.6 °F 19.4 °F 74% 30.01 in 10.0 mi WSW 3.5 mph - N/A   Clear
6:19 AM 26.6 °F - 21.2 °F 80% 30.04 in 10.0 mi Calm Calm - N/A   Clear
6:39 AM 28.4 °F - 19.4 °F 69% 30.05 in 10.0 mi Calm Calm - N/A   Clear
6:59 AM 26.6 °F - 21.2 °F 80% 30.06 in 10.0 mi Calm Calm - N/A   Clear
7:19 AM 26.6 °F - 21.2 °F 80% 30.07 in 10.0 mi Calm Calm - N/A   Clear
7:59 AM 26.6 °F - 21.2 °F 80% 30.08 in 10.0 mi Calm Calm - N/A   Clear
8:19 AM 28.4 °F - 23.0 °F 80% 30.08 in 10.0 mi Calm Calm - N/A   Clear
8:37 AM 28.4 °F - 24.8 °F 86% 30.10 in 10.0 mi Calm Calm - N/A   Clear
8:59 AM 30.2 °F - 23.0 °F 75% 30.11 in 10.0 mi Calm Calm - N/A   Clear
9:19 AM 30.2 °F - 21.2 °F 69% 30.11 in 10.0 mi Calm Calm - N/A   Clear
9:55 AM 35.1 °F 30.1 °F 23.4 °F 62% 30.11 in 10.0 mi East 5.8 mph - N/A   Clear
9:58 AM 35.6 °F 32.8 °F 23.0 °F 60% 30.11 in 10.0 mi East 3.5 mph - N/A   Clear
10:15 AM 35.6 °F - 21.7 °F 57% 30.12 in 10.0 mi Calm Calm - N/A   Clear
10:35 AM 36.5 °F - 22.5 °F 57% 30.11 in 10.0 mi Calm Calm - N/A   Clear
10:55 AM 37.0 °F - 21.7 °F 54% 30.12 in 10.0 mi Calm Calm - N/A   Clear
11:15 AM 37.6 °F - 20.8 °F 51% 30.12 in 10.0 mi Calm Calm - N/A   Clear
11:35 AM 38.8 °F 35.4 °F 21.9 °F 51% 30.10 in 10.0 mi ESE 4.6 mph - N/A   Clear
11:55 AM 39.2 °F - 21.6 °F 49% 30.09 in 10.0 mi Calm Calm - N/A   Clear
12:15 PM 40.1 °F 36.1 °F 21.9 °F 48% 30.09 in 10.0 mi SSW 5.8 mph - N/A   Clear
12:35 PM 42.6 °F 39.9 °F 22.5 °F 45% 30.08 in 10.0 mi WSW 4.6 mph - N/A   Clear
12:55 PM 43.0 °F 39.5 °F 20.8 °F 41% 30.07 in 10.0 mi WSW 5.8 mph - N/A   Clear
1:15 PM 43.7 °F 41.1 °F 21.4 °F 41% 30.06 in 10.0 mi SSW 4.6 mph - N/A   Clear
1:35 PM 45.1 °F - 21.7 °F 40% 30.04 in 10.0 mi Calm Calm - N/A   Clear
1:55 PM 46.2 °F 42.7 °F 20.8 °F 37% 30.04 in 10.0 mi South 6.9 mph - N/A   Clear
2:15 PM 46.6 °F - 21.9 °F 38% 30.03 in 10.0 mi South 4.6 mph - N/A   Clear
2:35 PM 46.6 °F - 21.7 °F 37% 30.03 in 10.0 mi SSE 5.8 mph - N/A   Clear
2:55 PM 47.3 °F - 23.0 °F 38% 30.02 in 10.0 mi SE 4.6 mph - N/A   Clear
3:15 PM 47.8 °F - 22.5 °F 37% 30.01 in 10.0 mi SSE 3.5 mph - N/A   Clear
3:35 PM 47.8 °F - 22.3 °F 37% 30.01 in 10.0 mi SE 6.9 mph - N/A   Clear
3:55 PM 48.2 °F - 21.0 °F 34% 30.00 in 10.0 mi South 4.6 mph - N/A   Clear
4:15 PM 48.2 °F - 21.0 °F 34% 29.99 in 10.0 mi SSW 5.8 mph - N/A   Clear
4:35 PM 48.2 °F - 21.0 °F 34% 29.99 in 10.0 mi South 5.8 mph - N/A   Clear
4:55 PM 47.8 °F - 20.8 °F 34% 29.99 in 10.0 mi Calm Calm - N/A   Clear
5:15 PM 46.9 °F - 22.6 °F 38% 29.99 in 10.0 mi SSE 4.6 mph - N/A   Clear
5:35 PM 46.4 °F - 23.0 °F 40% 29.99 in 10.0 mi Calm Calm - N/A   Clear
5:55 PM 45.5 °F 43.2 °F 23.9 °F 43% 29.99 in 10.0 mi South 4.6 mph - N/A   Clear
6:15 PM 45.1 °F 43.7 °F 24.1 °F 44% 29.99 in 10.0 mi South 3.5 mph - N/A   Clear
6:35 PM 45.0 °F 41.8 °F 23.9 °F 44% 29.99 in 10.0 mi South 5.8 mph - N/A   Clear
6:55 PM 44.6 °F 41.4 °F 23.4 °F 43% 29.99 in 10.0 mi South 5.8 mph - N/A   Clear
7:15 PM 43.9 °F 39.3 °F 23.7 °F 45% 29.99 in 10.0 mi South 8.1 mph - N/A   Clear
7:35 PM 43.7 °F 40.3 °F 23.9 °F 46% 29.99 in 10.0 mi SSW 5.8 mph - N/A   Scattered Clouds
7:55 PM 43.0 °F 39.5 °F 23.9 °F 47% 29.99 in 10.0 mi South 5.8 mph - N/A   Scattered Clouds
8:15 PM 41.9 °F 39.0 °F 24.3 °F 50% 29.99 in 10.0 mi SSW 4.6 mph - N/A   Clear
8:35 PM 40.8 °F 37.8 °F 24.6 °F 53% 29.99 in 10.0 mi SSW 4.6 mph - N/A   Clear
8:55 PM 40.3 °F 38.2 °F 24.6 °F 54% 29.99 in 10.0 mi South 3.5 mph - N/A   Clear
9:15 PM 39.9 °F - 24.1 °F 53% 29.99 in 10.0 mi Calm Calm - N/A   Clear
9:35 PM 39.2 °F 37.0 °F 23.9 °F 54% 30.00 in 10.0 mi SSW 3.5 mph - N/A   Clear
9:55 PM 38.3 °F 35.9 °F 23.9 °F 56% 30.01 in 10.0 mi SSW 3.5 mph - N/A   Clear
10:15 PM 38.8 °F 36.5 °F 23.7 °F 55% 30.00 in 10.0 mi SSW 3.5 mph - N/A   Mostly Cloudy
10:35 PM 38.8 °F 35.4 °F 23.7 °F 55% 30.00 in 10.0 mi SSW 4.6 mph - N/A   Scattered Clouds
10:55 PM 38.7 °F 35.2 °F 23.9 °F 55% 29.99 in 10.0 mi SSW 4.6 mph - N/A   Mostly Cloudy
11:15 PM 39.2 °F 37.0 °F 24.3 °F 55% 29.99 in 10.0 mi SSW 3.5 mph - N/A   Mostly Cloudy
11:35 PM 39.2 °F 35.0 °F 24.1 °F 55% 29.98 in 10.0 mi South 5.8 mph - N/A   Scattered Clouds
11:55 PM 38.5 °F - 24.3 °F 57% 29.97 in 10.0 mi Calm Calm - N/A   Scattered Clouds